Regional Weather Roundup
Issued by NWS

Home | Current Version | Previous Version | Graphics & Text | Print | Product List | Glossary Off
Versions: 1 2 3 4 5 6 7 8 9 10 11 12 13 14 15 16 17 18 19 20 21 22 23 24 25 26 27 28 29 30 31 32 33 34 35 36 37 38 39 40 41 42 43 44 45 46 47 48 49 50

909
ASUS43 KMKX 010000
RWRWI

WISCONSIN REGIONAL WEATHER ROUNDUP
NATIONAL WEATHER SERVICE MILWAUKEE/SULLIVAN WI
700 PM CDT FRI SEP 30 2016

NOTE: "FAIR" INDICATES FEW OR NO CLOUDS BELOW 12,000 FEET WITH NO
SIGNIFICANT WEATHER AND/OR OBSTRUCTIONS TO VISIBILITY.

WIZ001-002-006>008-014>016-023>028-010100-
NORTHWEST WISCONSIN

CITY           SKY/WX    TMP DP  RH WIND       PRES   REMARKS
SUPERIOR ARPT  CLOUDY    54  52  93 NE10      30.32F
ASHLAND        CLOUDY    53  52  96 NE13      30.32F
6HR MIN TEMP:  53; 6HR MAX TEMP:  59;

HAYWARD        MOCLDY    56  51  84 NE9       30.29S
6HR MIN TEMP:  55; 6HR MAX TEMP:  66;

SIREN          CLEAR     63  50  63 NE8       30.26S
CUMBERLAND     CLEAR     63  50  63 NE8       30.25S
RICE LAKE      CLEAR     64  52  65 N9        30.25S
CHETEK         NOT AVBL
LADYSMITH      CLEAR     65  51  61 NE5       30.26S
EAU CLAIRE     NOT AVBL
MENOMONIE      CLOUDY    70  49  47 NE5       30.21S HAZE
NEW RICHMOND   CLEAR     65  49  56 NE5       30.23R
OSCEOLA        CLEAR     66  51  58 NE7       30.25S
$$

WIZ003>005-009-010-017-018-010100-
NORTH CENTRAL WISCONSIN

CITY           SKY/WX    TMP DP  RH WIND       PRES   REMARKS
MANITOWISH WTR NOT AVBL
ARBOR VITAE    CLEAR     63  48  57 NE3       30.27F
WOODRUFF       CLEAR     63  48  57 NE3       30.27F
RHINELANDER    CLOUDY    63  50  62 NE5       30.27S
6HR MIN TEMP:  63; 6HR MAX TEMP:  70;

EAGLE RIVER    CLOUDY    62  45  53 CALM      30.27F
LAND O LAKES   CLEAR     61  53  74 NE6       30.31S
PHILLIPS       PTCLDY    63  49  60 NE6       30.26S
TOMAHAWK       CLOUDY    63  50  63 NE5       30.26S
MEDFORD        MOCLDY    62  51  69 NE5       30.23S
MERRILL        CLOUDY    65  52  62 E7        30.25S
$$

WIZ029-030-035-036-043>047-010100-
CENTRAL WISCONSIN

CITY           SKY/WX    TMP DP  RH WIND       PRES   REMARKS
WAUSAU         CLOUDY    63  51  65 NE5       30.21F
6HR MIN TEMP:  63; 6HR MAX TEMP:  70;

MOSINEE        NOT AVBL
MARSHFIELD     CLOUDY    64  54  69 E5        30.21S
6HR MIN TEMP:  64; 6HR MAX TEMP:  71;

STEVENS POINT  CLOUDY    60  52  74 E8        30.22S
WAUPACA        CLOUDY    62  57  84 NE5       30.20F
WAUTOMA        LGT RAIN  59  57  93 NE7       30.19F
6HR MIN TEMP:  59; 6HR MAX TEMP:  60; 6HR PCP: TRACE;

WISC RAPIDS    CLOUDY    62  54  74 NE6       30.22F
6HR MIN TEMP:  62; 6HR MAX TEMP:  66;

CAMP DOUGLAS   NOT AVBL
$$

WIZ011>013-019>022-031-037>040-048>050-010100-
NORTHEAST WISCONSIN

CITY           SKY/WX    TMP DP  RH WIND       PRES   REMARKS
ANTIGO         CLOUDY    60  53  77 CALM      30.24F
SHAWANO        CLOUDY    64  55  72 E6        30.21F
OCONTO         NOT AVBL
STURGEON BAY   CLOUDY    62  56  80 NE9       30.21F
6HR MIN TEMP:  62; 6HR MAX TEMP:  63; 6HR PCP: TRACE;

GREEN BAY      CLOUDY    63  58  83 NE16G22   30.19F
6HR MIN TEMP:  62; 6HR MAX TEMP:  63; 6HR PCP: TRACE;

MANITOWOC      NOT AVBL
APPLETON       CLOUDY    61  57  88 NE10      30.17F
CLINTONVILLE   CLOUDY    61  50  67 NE7       30.21F
OSHKOSH        CLOUDY    61  57  87 NE13      30.17S
6HR MIN TEMP:  60; 6HR MAX TEMP:  63; 6HR PCP:  0.01;

$$

WIZ032>034-041-042-053>061-010100-
SOUTHWEST WISCONSIN

CITY           SKY/WX    TMP DP  RH WIND       PRES   REMARKS
LA CROSSE      CLOUDY    65  57  75 CALM      30.20S
6HR MIN TEMP:  65; 6HR MAX TEMP:  70;

SPARTA         CLOUDY    62  56  83 NE6       30.22R
VIROQUA        CLOUDY    58  58  99 NE5       30.21S
BOSCOBEL       CLOUDY    62  58  86 VRB3      30.18S
6HR MIN TEMP:  62; 6HR MAX TEMP:  64; 6HR PCP:  0.01;

PRAIRIE DU CHI CLOUDY    61  56  83 N3        30.18R
PLATTEVILLE    CLOUDY    60  60 100 N7        30.17S
$$

WIZ056-057-062-063-064-067-068-010100-
SOUTH CENTRAL WISCONSIN

CITY           SKY/WX    TMP DP  RH WIND       PRES   REMARKS
REEDSBURG      NOT AVBL
BARABOO/DELLS  CLOUDY    58  56  94 NE7       30.18F FOG
LONE ROCK      CLOUDY    61  58  90 N7        30.18S
MINERAL POINT  CLOUDY    61  59  94 N5        30.17S
MADISON        CLOUDY    60  57  89 NE8       30.15F
6HR MIN TEMP:  60; 6HR MAX TEMP:  64; 6HR PCP: TRACE;

MIDDLETON      CLOUDY    61  60  98 NE12G17   30.15F
WATERTOWN      CLOUDY    60  60 100 NE8       30.14S
MONROE         CLOUDY    59  57  94 N8        30.13F FOG
JANESVILLE     CLOUDY    63  59  88 NE13G18   30.12F
$$

WIZ051-052-058>065-066-070>072-010100-
SOUTHEAST WISCONSIN

CITY           SKY/WX    TMP DP  RH WIND       PRES   REMARKS
MILWAUKEE      LGT RAIN  61  57  87 NE9       30.13S
6HR MIN TEMP:  60; 6HR MAX TEMP:  64; 6HR PCP: TRACE;

WAUKESHA       CLOUDY    57  55  94 NE8       30.15F
MILWAUKEE/TIMM MOCLDY    61  55  82 NE9       30.14S
RACINE         CLOUDY    63  58  83 NE14      30.13S
6HR MIN TEMP:  62; 6HR MAX TEMP:  65; 6HR PCP: TRACE;

BURLINGTON     CLOUDY    58  57  97 NE8       30.12S FOG
KENOSHA        CLOUDY    62  59  90 NE13      30.11S
6HR MIN TEMP:  62; 6HR MAX TEMP:  64;

FOND DU LAC    LGT RAIN  61  58  90 NE12      30.17F
6HR MIN TEMP:  61; 6HR MAX TEMP:  64; 6HR PCP:  0.01;

SHEBOYGAN      LGT RAIN  61  59  93 NE16      30.16S
6HR MIN TEMP:  61; 6HR MAX TEMP:  62; 6HR PCP:  0.02;

WEST BEND      CLOUDY    68  68 100 NE8G17    30.15S
JUNEAU         CLOUDY    60  56  89 NE9       30.16F
$$

LSZ147-162-010100-
LAKE SUPERIOR

STATION/POSITION TIME  TEMP    WIND        PRES    WAVE
                       AIR SEA DIR/SP/G            HT/PER
                 (UTC) (F)     (DEG/KT/KT) (MB)    (FT/S)
W MID LAKE BUOY  2250   53 56   50/ 14/ 16 1027.1F   2/ 5
DEVILS ISLAND    2300   52      50/ 13/ 14 1027.8F
SAXON HARBOR     2340   55      30/ 11/ 14 1026.4S
$$

LMZ867-665-643>646-010100-
LAKE MICHIGAN

STATION/POSITION TIME  TEMP    WIND        PRES    WAVE
                       AIR SEA DIR/SP/G            HT/PER
                 (UTC) (F)     (DEG/KT/KT) (MB)    (FT/S)
CHAMBERS ISLAND  2300   63      40/ 12/ 18 1023.4S
S GREEN BAY BUOY 2300   63 62   50/ 16/ 19 1022.4F
N MID LAKE BUOY  2250   64 65   70/ 21/ 25 1022.9R   4/ 5
NORTHPORT PIER   2300   64      50/ 14/ 20 1023.7F
SISTER BAY       2308   64      50/  6/ 12   N/A
KEWAUNEE LAKESHO 2300   62      30/ 11/ 17 1021.9F
SHEBOYGAN LAKESH 2300   61      30/ 14/ 15 1021.2F
PORT WASHINGTON  2300   62      20/  8/ 13 1021.7F
ATWATER BUOY     2300   58 55   10/ 10/ 14 1020.3F
MILWAUKEE LAKESH 2310   60      20/ 12/ 14   N/A
S MID LAKE BUOY  2250   64 68   70/ 21/ 27 1018.4S   4/ 5
KENOSHA   LAKESH 2300   63      50/ 17/ 19 1019.3F
$$

TC  - TEMPERATURE IN CELSIUS
VSB - VISIBILITY IN STATUTE MILES
WCI - WIND CHILL INDEX
HX  - HEAT INDEX





USA.gov is the U.S. government's official web portal to all federal, state and local government web resources and services.